Regional Weather Roundup
Issued by NWS

Home | Current Version | Previous Version | Graphics & Text | Print | Product List | Glossary On
Versions: 1 2 3 4 5 6 7 8 9 10 11 12 13 14 15 16 17 18 19 20 21 22 23 24 25 26 27
000
ASUS45 KSLC 220910
RWRUT

UTAH REGIONAL WEATHER ROUNDUP
NATIONAL WEATHER SERVICE SALT LAKE CITY UT
200 AM MST WED FEB 22 2017

UTZ001>011-023>025-221000-

NORTHERN UTAH

CITY           SKY/WX    TMP DP  RH WIND       PRES   REMARKS
BRIGHAM CITY     N/A     34  32  92 SE5       30.07F WCI  30
HILL AFB       LGT SNOW  32  32 100 SE9       30.05S FOG     WCI  24
LOGAN          NOT AVBL
OGDEN          FLURRIES  34  33  96 SE8       30.05F WCI  27
SALT LAKE CITY CLOUDY    36  34  92 S7        30.07F WCI  30
TOOELE VALLEY  DRIZZLE   34  32  93 SE8       30.07F WCI  27
WENDOVER       MOCLDY    36  27  69 NW5       30.05F WCI  32
HEBER CITY     LGT SNOW  32  30  93 CALM      30.03F
WEST JORDAN    CLOUDY    36  36 100 CALM      30.06F

$$

UTZ011>015-024>027-221000-

CENTRAL/NORTHEAST UTAH

CITY           SKY/WX    TMP DP  RH WIND       PRES   REMARKS
PROVO AIRPORT  LGT SNOW  32  31  96 CALM      30.07F FOG
MOAB/CANYONLAN PTCLDY    46  35  65 SW14      29.98F
DELTA          CLOUDY    36  32  87 N8        30.04S WCI  29
PRICE          CLOUDY    36  30  79 NE7       29.97F WCI  30
RICHFIELD      PTCLDY    50  28  43 SW21G29   30.03F
ROOSEVELT      CLOUDY    41  32  70 W3        29.97F
VERNAL         CLOUDY    44  31  60 SW8       29.95S

$$

UTZ013>016-019>022-027-221000-

SOUTHERN UTAH

CITY           SKY/WX    TMP DP  RH WIND       PRES   REMARKS
BRYCE CANYON   MOCLDY    37  28  70 SW20      30.11F WCI  27
CEDAR CITY     PTCLDY    43  33  68 SW12G20   30.02F
MILFORD        MOCLDY    42  36  79 S14       30.03F
ST GEORGE      CLOUDY    55  42  61 SE7       30.06F
HANKSVILLE     PTCLDY    52  32  46 SW13G21   30.02F
KANAB          MOCLDY    43  39  87 S6        30.15F
BLANDING       PTCLDY    41  36  81 E3        30.18S

$$

REGIONAL REPORTS     COLORADO/ARIZONA

CITY           SKY/WX    TMP DP  RH WIND       PRES   REMARKS
CRAIG, CO      CLOUDY    33  26  75 W6        30.01S WCI  28
GRAND JUNCTION CLOUDY    46  35  65 SE9       29.97F
RIFLE, CO      CLEAR     47  32  56 W13       29.96F
MONTROSE, CO   CLOUDY    52  27  38 SW13G21   30.05R
CORTEZ, CO     CLOUDY    40  36  86 E9        30.14F WCI  34
COLORADO CITY    N/A     43  39  87 NE5       30.15S
PAGE, AZ       MOCLDY    51  32  48 CALM      30.07F
GRAND CANYON   NOT AVBL
KINGMAN, AZ    MOCLDY    51  37  58 SE5       30.12F
FLAGSTAFF, AZ  CLOUDY    41  41 100 W5        30.23F

$$

REGIONAL REPORTS    NEVADA/IDAHO/WYOMING

CITY           SKY/WX    TMP DP  RH WIND       PRES   REMARKS
LAS VEGAS, NV  CLOUDY    59  40  49 S14G23    30.00F
ELY, NY        LGT SNOW  31  31 100 CALM      30.04S FOG
ELKO, NV       CLOUDY    32  27  81 CALM      30.07F
POCATELLO, ID  CLOUDY    35  27  72 SW16      30.02R WCI  25
BURLEY, ID     CLOUDY    37  26  64 W14       30.03F WCI  28
FORT BRIDGER,  LGT SNOW  28  28 100 W8        30.04S WCI  19
EVANSTON, WY   LGT SNOW  27  24  89 CALM      30.00S FOG
ROCK SPRINGS,  CLOUDY    28  25  88 W16       30.00F WCI  16

$$




USA.gov is the U.S. government's official web portal to all federal, state and local government web resources and services.